Location: Bow
(51.5261°N, 0.0167°W)
Time: 13:03:19
(UTC+00:00)

Cosmos 1092 Rocket - Pass Details

Date: 18 September 2020
Orbit: 954 x 995 km, 82.9° (Epoch: 22 October)

Event Time Altitude Azimuth Distance (km) Brightness Sun altitude
Rises 19:47:28 0° 351° (N) 3,646 7.5 -16.0°
Reaches altitude 10° 19:50:01 10° 355° (N) 2,697 6.7 -16.4°
Maximum altitude 19:56:07 62° 76° (ENE) 1,074 4.0 -17.2°
Enters shadow 20:00:16 21° 152° (SSE) 1,995 5.2 -17.8°
